This is the latest recevied weather packets stored in our database for station/object WV8BRW. If no packets are shown the sender has not sent any weather packets the latest 10 day(s).
| Time | Temp. | Humidity | Pressure | Rain* | Wind** | Luminosity | Snow |
|---|---|---|---|---|---|---|---|
| 1778194463 | 16.67° C | 39% | 1011.3 hPa | 0 mm | - | 59 W/m² | - |
| 1778194159 | 16.67° C | 34% | 1011.1 hPa | 0 mm | - | 46 W/m² | - |
| 1778193855 | 16.67° C | 35% | 1011.1 hPa | 0 mm | - | 57 W/m² | - |
| 1778193552 | 16.67° C | 37% | 1011 hPa | 0 mm | - | 55 W/m² | - |
| 1778193249 | 16.67° C | 35% | 1011.1 hPa | 0 mm | - | 61 W/m² | - |
| 1778192945 | 17.22° C | 35% | 1011 hPa | 0 mm | - | 91 W/m² | - |
| 1778192642 | 17.78° C | 37% | 1011.1 hPa | 0 mm | - | 267 W/m² | - |
| 1778192339 | 17.22° C | 37% | 1011 hPa | 0 mm | - | 284 W/m² | - |
| 1778192036 | 17.78° C | 38% | 1011.1 hPa | 0 mm | - | 270 W/m² | - |
| 1778191731 | 17.78° C | 36% | 1011 hPa | 0 mm | - | 315 W/m² | - |
| 1778191430 | 17.78° C | 36% | 1011.1 hPa | 0 mm | - | 378 W/m² | - |
| 1778191126 | 17.78° C | 37% | 1010.8 hPa | 0 mm | - | 381 W/m² | - |
| 1778190823 | 17.78° C | 37% | 1011 hPa | 0 mm | - | 399 W/m² | - |
| 1778190520 | 17.78° C | 40% | 1011 hPa | 0 mm | - | 380 W/m² | - |
| 1778190218 | 17.78° C | 39% | 1010.8 hPa | 0 mm | - | 438 W/m² | - |
| 1778189912 | 17.22° C | 40% | 1010.6 hPa | 0 mm | - | 476 W/m² | - |
| 1778189610 | 18.33° C | 38% | 1010.6 hPa | 0 mm | - | 209 W/m² | - |
| 1778189306 | 18.33° C | 41% | 1010.6 hPa | 0 mm | - | 538 W/m² | - |
| 1778189002 | 18.33° C | 42% | 1010.5 hPa | 0 mm | - | 565 W/m² | - |
| 1778188699 | 17.22° C | 42% | 1010.8 hPa | 0 mm | - | 591 W/m² | - |
| 1778188396 | 16.67° C | 44% | 1010.6 hPa | 0 mm | - | 136 W/m² | - |
| 1778188093 | 17.22° C | 42% | 1010.7 hPa | 0 mm | - | 136 W/m² | - |
| 1778187790 | 17.22° C | 43% | 1010.5 hPa | 0 mm | - | 176 W/m² | - |
| 1778187485 | 16.67° C | 44% | 1010.5 hPa | 0 mm | - | 220 W/m² | - |
| 1778187183 | 17.22° C | 42% | 1010.6 hPa | 0 mm | - | 185 W/m² | - |
* Rain latest hour (hover to see other rain measurements)
** Current wind speed in m/s (hover to see current wind gust speed)